• In Netherlands
  • List of Countries
  • For 7 days
  • Water Temperature
  • Satellite Maps
  • Weather Map
  • Weather Widgets
  • user-avatar
    Login

    Hourly Weather Kiustendil

    Today, 24 November, Friday

    Time Temperature Precipitation Wind Pressure Humidity
    00:00 0°C° 0 mm 1 mps 625 mmHg 64%
    01:00 0°C° 0 mm 1 mps 625 mmHg 64%
    02:00 -1°C° 0 mm 1 mps 625 mmHg 65%
    03:00 -1°C° 0 mm 1 mps 624 mmHg 65%
    04:00 -1°C° 0 mm 1 mps 624 mmHg 66%
    05:00 -1°C° 0 mm 1 mps 624 mmHg 66%
    06:00 -1°C° 0 mm 1 mps 624 mmHg 66%
    07:00 -1°C° 0 mm 1 mps 625 mmHg 67%
    08:00 +1°C° 0 mm 1 mps 625 mmHg 61%
    09:00 +3°C° 0 mm 1 mps 626 mmHg 56%
    10:00 +5°C° 0 mm 1 mps 627 mmHg 50%
    11:00 +6°C° 0 mm 1 mps 627 mmHg 48%
    12:00 +7°C° 0 mm 1 mps 627 mmHg 46%
    13:00 +7°C° 0 mm 1 mps 627 mmHg 44%
    14:00 +6°C° 0 mm 1 mps 626 mmHg 49%
    15:00 +4°C° 0 mm 1 mps 626 mmHg 55%
    16:00 +2°C° 0 mm 0 mps 625 mmHg 60%
    17:00 +1°C° 0 mm 0 mps 625 mmHg 62%
    18:00 0°C° 0 mm 0 mps 625 mmHg 65%
    19:00 +1°C° 0 mm 1 mps 625 mmHg 67%
    20:00 0°C° 0 mm 1 mps 625 mmHg 68%
    21:00 0°C° 0 mm 1 mps 625 mmHg 70%
    22:00 0°C° 0 mm 1 mps 625 mmHg 71%
    23:00 -1°C° 0 mm 1 mps 625 mmHg 71%

    Tomorrow, 25 November, Saturday

    Time Temperature Precipitation Wind Pressure Humidity
    00:00 -1°C° 0 mm 1 mps 625 mmHg 72%
    01:00 -2°C° 0 mm 0 mps 625 mmHg 73%
    02:00 -2°C° 0 mm 0 mps 625 mmHg 73%
    03:00 -1°C° 0 mm 1 mps 624 mmHg 74%
    04:00 -2°C° 0 mm 1 mps 624 mmHg 74%
    05:00 -2°C° 0 mm 1 mps 624 mmHg 74%
    06:00 -2°C° 0 mm 1 mps 624 mmHg 74%
    07:00 -2°C° 0 mm 1 mps 624 mmHg 74%
    08:00 0°C° 0 mm 1 mps 625 mmHg 67%
    09:00 +2°C° 0 mm 1 mps 625 mmHg 60%
    10:00 +3°C° 0 mm 2 mps 626 mmHg 53%
    11:00 +4°C° 0 mm 2 mps 626 mmHg 51%
    12:00 +5°C° 0 mm 2 mps 626 mmHg 50%
    13:00 +5°C° 0 mm 2 mps 625 mmHg 49%
    14:00 +4°C° 0 mm 2 mps 625 mmHg 55%
    15:00 +3°C° 0 mm 2 mps 624 mmHg 62%
    16:00 +1°C° 0 mm 2 mps 623 mmHg 69%
    17:00 +1°C° 0 mm 2 mps 623 mmHg 73%
    18:00 -1°C° 0 mm 2 mps 623 mmHg 78%
    19:00 -2°C° 0 mm 2 mps 623 mmHg 82%
    20:00 -2°C° 0 mm 2 mps 623 mmHg 84%
    21:00 -1°C° 0 mm 1 mps 623 mmHg 86%
    22:00 -1°C° 0 mm 1 mps 623 mmHg 88%
    23:00 -1°C° 0 mm 1 mps 623 mmHg 89%

    Day after tomorrow, 26 November, Sunday

    Time Temperature Precipitation Wind Pressure Humidity
    00:00 -1°C° 0 mm 1 mps 623 mmHg 90%
    01:00 -1°C° 0 mm 1 mps 623 mmHg 91%
    02:00 -1°C° 0 mm 1 mps 622 mmHg 91%
    03:00 -1°C° 0 mm 1 mps 622 mmHg 91%
    04:00 -1°C° 0 mm 1 mps 622 mmHg 91%
    05:00 -1°C° 0 mm 1 mps 622 mmHg 91%
    06:00 -1°C° 0 mm 1 mps 622 mmHg 91%
    07:00 -1°C° 0 mm 1 mps 622 mmHg 91%
    08:00 -1°C° 0 mm 2 mps 622 mmHg 83%
    09:00 +1°C° 0 mm 2 mps 623 mmHg 76%
    10:00 +3°C° 0 mm 2 mps 623 mmHg 69%
    11:00 +3°C° 0 mm 2 mps 623 mmHg 65%
    12:00 +4°C° 0 mm 2 mps 623 mmHg 62%
    13:00 +4°C° 0 mm 3 mps 622 mmHg 58%
    14:00 +4°C° 0 mm 2 mps 622 mmHg 64%
    15:00 +3°C° 0 mm 2 mps 621 mmHg 69%
    16:00 +2°C° 0 mm 2 mps 621 mmHg 75%
    17:00 +1°C° 0.1 mm 2 mps 621 mmHg 77%
    18:00 +1°C° 0.1 mm 2 mps 621 mmHg 80%
    19:00 +1°C° 0.1 mm 2 mps 621 mmHg 83%
    20:00 -1°C° 0.3 mm 2 mps 621 mmHg 84%
    21:00 +1°C° 0.3 mm 1 mps 621 mmHg 85%
    22:00 +1°C° 0.3 mm 1 mps 620 mmHg 85%
    23:00 +1°C° 0.5 mm 1 mps 620 mmHg 86%

    27 November, Monday

    Time Temperature Precipitation Wind Pressure Humidity
    00:00 +1°C° 0.5 mm 1 mps 620 mmHg 87%
    01:00 +1°C° 0.5 mm 1 mps 620 mmHg 88%
    02:00 +1°C° 0.8 mm 1 mps 620 mmHg 89%
    03:00 0°C° 0.8 mm 1 mps 620 mmHg 89%
    04:00 0°C° 0.8 mm 1 mps 620 mmHg 90%
    05:00 -2°C° 1 mm 2 mps 620 mmHg 89%
    06:00 -2°C° 1 mm 2 mps 620 mmHg 88%
    07:00 -2°C° 1 mm 3 mps 620 mmHg 87%
    08:00 -2°C° 0.3 mm 3 mps 620 mmHg 84%
    09:00 -3°C° 0.3 mm 4 mps 620 mmHg 81%
    10:00 -4°C° 0.3 mm 5 mps 620 mmHg 77%
    11:00 -4°C° 0.5 mm 5 mps 620 mmHg 77%
    12:00 -5°C° 0.5 mm 5 mps 620 mmHg 77%
    13:00 -5°C° 0.5 mm 5 mps 619 mmHg 77%
    14:00 -6°C° 0.5 mm 5 mps 619 mmHg 78%
    15:00 -6°C° 0.5 mm 5 mps 619 mmHg 79%
    16:00 -7°C° 0.5 mm 5 mps 619 mmHg 80%
    17:00 -7°C° 0.6 mm 5 mps 619 mmHg 82%
    18:00 -8°C° 0.6 mm 5 mps 619 mmHg 83%
    19:00 -8°C° 0.6 mm 5 mps 619 mmHg 84%
    20:00 -10°C° 0.7 mm 5 mps 619 mmHg 86%
    21:00 -9°C° 0.7 mm 4 mps 619 mmHg 87%
    22:00 -9°C° 0.7 mm 4 mps 619 mmHg 88%
    23:00 -10°C° 0.7 mm 4 mps 619 mmHg 89%

    28 November, Tuesday

    Time Temperature Precipitation Wind Pressure Humidity
    00:00 -10°C° 0.7 mm 4 mps 618 mmHg 90%
    01:00 -10°C° 0.7 mm 4 mps 618 mmHg 90%
    02:00 -10°C° 0.6 mm 4 mps 618 mmHg 91%
    03:00 -10°C° 0.6 mm 4 mps 618 mmHg 91%
    04:00 -9°C° 0.6 mm 3 mps 618 mmHg 91%
    05:00 -9°C° 0.4 mm 3 mps 618 mmHg 91%
    06:00 -9°C° 0.4 mm 3 mps 618 mmHg 91%
    07:00 -9°C° 0.4 mm 3 mps 619 mmHg 90%
    08:00 -9°C° 0.2 mm 3 mps 619 mmHg 89%
    09:00 -9°C° 0.2 mm 3 mps 619 mmHg 88%
    10:00 -8°C° 0.2 mm 3 mps 619 mmHg 88%
    11:00 -8°C° 0.1 mm 3 mps 619 mmHg 88%
    12:00 -8°C° 0.1 mm 3 mps 619 mmHg 88%
    13:00 -7°C° 0.1 mm 3 mps 619 mmHg 88%
    14:00 -8°C° 0 mm 3 mps 619 mmHg 88%
    15:00 -7°C° 0 mm 2 mps 619 mmHg 89%
    16:00 -8°C° 0 mm 2 mps 618 mmHg 89%
    17:00 -8°C° 0 mm 2 mps 618 mmHg 89%
    18:00 -9°C° 0 mm 2 mps 618 mmHg 90%
    19:00 -9°C° 0 mm 1 mps 618 mmHg 90%
    20:00 -9°C° 0 mm 1 mps 618 mmHg 89%
    21:00 -9°C° 0 mm 1 mps 618 mmHg 89%
    22:00 -9°C° 0 mm 1 mps 618 mmHg 88%
    23:00 -10°C° 0 mm 1 mps 618 mmHg 87%

    29 November, Wednesday

    Time Temperature Precipitation Wind Pressure Humidity
    00:00 -10°C° 0 mm 1 mps 618 mmHg 86%
    01:00 -10°C° 0 mm 1 mps 617 mmHg 85%
    02:00 -10°C° 0 mm 1 mps 617 mmHg 85%
    03:00 -9°C° 0 mm 1 mps 617 mmHg 84%
    04:00 -9°C° 0 mm 1 mps 617 mmHg 83%
    05:00 -9°C° 0 mm 1 mps 618 mmHg 82%
    06:00 -9°C° 0 mm 1 mps 618 mmHg 81%
    07:00 -9°C° 0 mm 1 mps 618 mmHg 80%
    08:00 -7°C° 0 mm 1 mps 619 mmHg 82%
    09:00 -4°C° 0 mm 1 mps 619 mmHg 83%
    10:00 -2°C° 0 mm 1 mps 620 mmHg 84%
    11:00 -2°C° 0 mm 1 mps 620 mmHg 83%
    12:00 -1°C° 0 mm 1 mps 620 mmHg 83%
    13:00 -1°C° 0 mm 1 mps 620 mmHg 82%
    14:00 -2°C° 0 mm 1 mps 619 mmHg 81%
    15:00 -3°C° 0 mm 1 mps 619 mmHg 81%
    16:00 -4°C° 0 mm 1 mps 619 mmHg 80%
    17:00 -6°C° 0 mm 1 mps 619 mmHg 79%
    18:00 -6°C° 0 mm 1 mps 619 mmHg 78%
    19:00 -7°C° 0 mm 1 mps 619 mmHg 78%
    20:00 -7°C° 0 mm 1 mps 619 mmHg 78%
    21:00 -8°C° 0 mm 2 mps 619 mmHg 79%
    22:00 -8°C° 0 mm 2 mps 619 mmHg 79%
    23:00 -8°C° 0 mm 2 mps 619 mmHg 80%
    Show more